User: anonymous   Login
Location: Umburanas
(4.5000°S, 37.9667°W)
Time: 10:30:30
(UTC+00:00)
Language:

Cosmos 2237 Rocket - Orbit

View from above orbital plane
View from above orbital plane
View from above satellite
View from above satellite

Ground track
Ground track

The orbit data is extracted from the following two-line orbital elements,

1 22566U 93016B   20022.99001341 -.00000036  00000-0  57462-5 0  9992
2 22566  71.0049 233.1938 0008857 138.1692 222.0109 14.14959880385620
Epoch (UTC): 22 January 2020 23:45:37
Eccentricity: 0.0008857
inclination: 71.0049°
perigee height: 836 km
apogee height: 849 km
right ascension of ascending node: 233.1938°
argument of perigee: 138.1692°
revolutions per day: 14.14959880
mean anomaly at epoch: 222.0109°
orbit number at epoch: 38562

The dashed part of the orbit path shows where the satellite is in the earth's shadow,  

DLR